TimeEST,TemperatureF,Dew PointF,Humidity,Sea Level PressureIn,VisibilityMPH,Wind Direction,Wind SpeedMPH,Gust SpeedMPH,PrecipitationIn,Events,Conditions,WindDirDegrees,DateUTC
12:54 AM,32.0,28.9,88,29.77,1.0,WSW,23.0,35.7,0.00,Snow,Light Snow,240,2013-02-12 05:54:00
1:24 AM,32.0,28.4,87,29.75,2.0,WSW,21.9,34.5,0.00,Snow,Light Snow,240,2013-02-12 06:24:00
1:28 AM,32.0,28.4,87,29.75,3.0,SW,25.3,38.0,0.00,Snow,Light Snow,230,2013-02-12 06:28:00
1:54 AM,33.1,28.0,82,29.77,9.0,WSW,21.9,40.3,0.00,Snow,Light Snow,240,2013-02-12 06:54:00
2:54 AM,33.1,27.0,78,29.80,9.0,WSW,26.5,34.5,0.00,Snow,Light Snow,240,2013-02-12 07:54:00
3:54 AM,33.1,27.0,78,29.82,9.0,WSW,25.3,36.8,0.00,Snow,Light Snow,240,2013-02-12 08:54:00
4:54 AM,32.0,28.0,85,29.84,6.0,WSW,19.6,38.0,0.00,Snow,Light Snow,250,2013-02-12 09:54:00
5:54 AM,33.1,27.0,78,29.86,10.0,WSW,20.7,31.1,0.00,Snow,Light Snow,250,2013-02-12 10:54:00
6:54 AM,33.1,27.0,78,29.88,9.0,WSW,21.9,32.2,0.00,Snow,Light Snow,250,2013-02-12 11:54:00
7:31 AM,32.0,26.6,80,29.87,9.0,WSW,18.4,31.1,0.00,Snow,Light Snow,240,2013-02-12 12:31:00
7:54 AM,32.0,27.0,82,29.91,9.0,WSW,24.2,29.9,0.00,Snow,Light Snow,240,2013-02-12 12:54:00
8:54 AM,32.0,26.1,79,29.92,10.0,WSW,23.0,34.5,0.00,Snow,Light Snow,240,2013-02-12 13:54:00
8:58 AM,32.0,26.6,80,29.90,10.0,WSW,23.0,34.5,0.00,,Overcast,240,2013-02-12 13:58:00
9:54 AM,33.1,24.1,70,29.94,10.0,WSW,23.0,29.9,0.00,,Overcast,250,2013-02-12 14:54:00
10:54 AM,32.0,25.0,75,29.95,10.0,WSW,19.6,26.5,0.00,Snow,Light Snow,250,2013-02-12 15:54:00
11:54 AM,32.0,24.1,73,29.96,10.0,WSW,19.6,27.6,0.00,Snow,Light Snow,250,2013-02-12 16:54:00
12:26 PM,32.0,24.8,75,29.94,8.0,WSW,16.1,28.8,0.00,Snow,Light Snow,250,2013-02-12 17:26:00
12:54 PM,32.0,25.0,75,29.95,9.0,WSW,16.1,26.5,0.00,Snow,Light Snow,250,2013-02-12 17:54:00
1:54 PM,32.0,25.0,75,29.94,10.0,WSW,16.1,-,0.00,Snow,Light Snow,240,2013-02-12 18:54:00
2:51 PM,32.0,24.8,75,29.91,10.0,WSW,20.7,27.6,0.00,,Overcast,240,2013-02-12 19:51:00
2:54 PM,32.0,24.1,73,29.93,10.0,WSW,18.4,27.6,0.00,,Overcast,240,2013-02-12 19:54:00
3:34 PM,30.2,24.8,80,29.89,6.0,West,15.0,25.3,0.00,Snow,Light Snow,260,2013-02-12 20:34:00
3:54 PM,30.9,24.1,76,29.91,7.0,WSW,13.8,-,0.00,Snow,Light Snow,250,2013-02-12 20:54:00
4:48 PM,30.2,24.8,80,29.90,10.0,WSW,11.5,-,0.00,Snow,Light Snow,250,2013-02-12 21:48:00
4:54 PM,30.9,24.1,76,29.93,10.0,WSW,12.7,-,0.00,Snow,Light Snow,250,2013-02-12 21:54:00
5:28 PM,30.2,24.8,80,29.92,10.0,WSW,13.8,21.9,0.00,Snow,Light Snow,250,2013-02-12 22:28:00
5:50 PM,30.2,24.8,80,29.92,10.0,WSW,15.0,21.9,0.00,Snow,Light Snow,240,2013-02-12 22:50:00
5:54 PM,30.9,25.0,79,29.95,10.0,WSW,15.0,24.2,0.00,Snow,Light Snow,240,2013-02-12 22:54:00
6:54 PM,30.9,25.0,79,29.96,10.0,SW,21.9,28.8,0.00,Snow,Light Snow,230,2013-02-12 23:54:00
7:54 PM,30.9,25.0,79,29.98,10.0,WSW,12.7,-,0.00,Snow,Light Snow,240,2013-02-13 00:54:00
7:58 PM,30.2,24.8,80,29.96,10.0,WSW,12.7,-,0.00,Snow,Light Snow,240,2013-02-13 00:58:00
8:54 PM,30.9,25.0,79,29.96,10.0,West,11.5,-,0.00,Snow,Light Snow,260,2013-02-13 01:54:00
9:54 PM,30.9,23.0,72,29.94,10.0,WSW,13.8,20.7,0.00,Snow,Light Snow,240,2013-02-13 02:54:00
10:51 PM,30.2,21.2,69,29.90,10.0,West,9.2,-,0.00,,Overcast,260,2013-02-13 03:51:00
10:54 PM,30.9,21.9,69,29.93,10.0,West,9.2,-,0.00,,Overcast,270,2013-02-13 03:54:00
11:34 PM,30.2,21.2,69,29.89,10.0,WSW,6.9,-,N/A,,Overcast,250,2013-02-13 04:34:00
11:43 PM,30.2,21.2,69,29.89,10.0,West,10.4,-,N/A,,Overcast,260,2013-02-13 04:43:00
11:54 PM,30.9,21.9,69,29.92,10.0,West,10.4,-,N/A,,Overcast,260,2013-02-13 04:54:00